• în România
  • Lista ţărilor
  • Pe 7 zile
  • Temperatura apei
  • Hartă satelitară
  • Meteo pe hartă
  • Widget-uri
  • user-avatar
    Intrare

    Meteo pe oră la Elbasan

    Astăzi, 21 Ianuarie, Duminică

    Timp Temperatura Precipitaţii Vânt Presiune Umiditate
    00:00 +6°C° 0 mm 2 m/s 732 mmHg 94%
    01:00 +6°C° 0 mm 2 m/s 732 mmHg 94%
    02:00 +6°C° 0 mm 2 m/s 731 mmHg 93%
    03:00 +6°C° 0 mm 2 m/s 731 mmHg 92%
    04:00 +6°C° 0 mm 2 m/s 730 mmHg 91%
    05:00 +7°C° 0,1 mm 2 m/s 730 mmHg 91%
    06:00 +7°C° 0,1 mm 2 m/s 729 mmHg 90%
    07:00 +7°C° 0,1 mm 3 m/s 729 mmHg 90%
    08:00 +8°C° 0,2 mm 3 m/s 728 mmHg 87%
    09:00 +9°C° 0,2 mm 3 m/s 728 mmHg 85%
    10:00 +10°C° 0,2 mm 3 m/s 728 mmHg 82%
    11:00 +10°C° 0,2 mm 4 m/s 727 mmHg 79%
    12:00 +11°C° 0,2 mm 4 m/s 726 mmHg 77%
    13:00 +11°C° 0,2 mm 4 m/s 725 mmHg 74%
    14:00 +10°C° 2,2 mm 4 m/s 725 mmHg 80%
    15:00 +9°C° 2,2 mm 3 m/s 724 mmHg 87%
    16:00 +8°C° 2,2 mm 3 m/s 723 mmHg 93%
    17:00 +8°C° 1,9 mm 3 m/s 723 mmHg 94%
    18:00 +8°C° 1,9 mm 3 m/s 723 mmHg 94%
    19:00 +8°C° 1,9 mm 3 m/s 723 mmHg 94%
    20:00 +8°C° 0,8 mm 3 m/s 723 mmHg 94%
    21:00 +8°C° 0,8 mm 3 m/s 724 mmHg 94%
    22:00 +8°C° 0,8 mm 3 m/s 724 mmHg 94%
    23:00 +7°C° 0,5 mm 3 m/s 724 mmHg 93%

    Mâine, 22 Ianuarie, Luni

    Timp Temperatura Precipitaţii Vânt Presiune Umiditate
    00:00 +7°C° 0,5 mm 3 m/s 725 mmHg 92%
    01:00 +5°C° 0,5 mm 3 m/s 725 mmHg 91%
    02:00 +5°C° 0,2 mm 3 m/s 726 mmHg 89%
    03:00 +4°C° 0,2 mm 4 m/s 726 mmHg 87%
    04:00 +4°C° 0,2 mm 4 m/s 727 mmHg 85%
    05:00 +3°C° 0 mm 3 m/s 727 mmHg 84%
    06:00 +2°C° 0 mm 3 m/s 728 mmHg 82%
    07:00 +2°C° 0 mm 3 m/s 729 mmHg 81%
    08:00 +3°C° 0 mm 3 m/s 729 mmHg 75%
    09:00 +4°C° 0 mm 3 m/s 730 mmHg 69%
    10:00 +5°C° 0 mm 3 m/s 730 mmHg 63%
    11:00 +5°C° 0 mm 4 m/s 730 mmHg 61%
    12:00 +6°C° 0 mm 4 m/s 731 mmHg 59%
    13:00 +6°C° 0 mm 4 m/s 731 mmHg 58%
    14:00 +7°C° 0 mm 3 m/s 731 mmHg 60%
    15:00 +5°C° 0 mm 3 m/s 731 mmHg 63%
    16:00 +6°C° 0 mm 2 m/s 732 mmHg 65%
    17:00 +5°C° 0 mm 2 m/s 732 mmHg 68%
    18:00 +4°C° 0 mm 2 m/s 733 mmHg 70%
    19:00 +3°C° 0 mm 2 m/s 733 mmHg 73%
    20:00 +2°C° 0 mm 2 m/s 734 mmHg 72%
    21:00 +2°C° 0 mm 2 m/s 734 mmHg 71%
    22:00 +2°C° 0 mm 2 m/s 735 mmHg 70%
    23:00 +2°C° 0 mm 2 m/s 735 mmHg 70%

    Poimâine, 23 Ianuarie, Marţi

    Timp Temperatura Precipitaţii Vânt Presiune Umiditate
    00:00 +2°C° 0 mm 2 m/s 735 mmHg 69%
    01:00 +2°C° 0 mm 2 m/s 735 mmHg 68%
    02:00 +2°C° 0 mm 2 m/s 735 mmHg 68%
    03:00 +2°C° 0 mm 2 m/s 735 mmHg 68%
    04:00 +2°C° 0 mm 2 m/s 735 mmHg 68%
    05:00 +2°C° 0 mm 2 m/s 735 mmHg 68%
    06:00 +2°C° 0 mm 2 m/s 736 mmHg 68%
    07:00 +2°C° 0 mm 2 m/s 736 mmHg 67%
    08:00 +3°C° 0 mm 2 m/s 737 mmHg 62%
    09:00 +5°C° 0 mm 2 m/s 737 mmHg 57%
    10:00 +6°C° 0 mm 2 m/s 738 mmHg 52%
    11:00 +7°C° 0 mm 2 m/s 738 mmHg 49%
    12:00 +8°C° 0 mm 2 m/s 738 mmHg 47%
    13:00 +9°C° 0 mm 2 m/s 738 mmHg 44%
    14:00 +8°C° 0 mm 2 m/s 738 mmHg 48%
    15:00 +8°C° 0 mm 2 m/s 738 mmHg 52%
    16:00 +7°C° 0 mm 2 m/s 738 mmHg 56%
    17:00 +6°C° 0 mm 2 m/s 739 mmHg 58%
    18:00 +4°C° 0 mm 3 m/s 739 mmHg 60%
    19:00 +2°C° 0 mm 3 m/s 740 mmHg 62%
    20:00 +2°C° 0 mm 3 m/s 741 mmHg 62%
    21:00 +2°C° 0 mm 3 m/s 741 mmHg 63%
    22:00 +1°C° 0 mm 3 m/s 741 mmHg 63%
    23:00 +1°C° 0 mm 3 m/s 742 mmHg 62%

    24 Ianuarie, Miercuri

    Timp Temperatura Precipitaţii Vânt Presiune Umiditate
    00:00 +1°C° 0 mm 3 m/s 742 mmHg 62%
    01:00 +1°C° 0 mm 3 m/s 742 mmHg 61%
    02:00 0°C° 0 mm 3 m/s 743 mmHg 60%
    03:00 0°C° 0 mm 3 m/s 743 mmHg 59%
    04:00 0°C° 0 mm 3 m/s 743 mmHg 58%
    05:00 0°C° 0 mm 3 m/s 743 mmHg 58%
    06:00 0°C° 0 mm 3 m/s 744 mmHg 58%
    07:00 0°C° 0 mm 3 m/s 744 mmHg 58%
    08:00 +1°C° 0 mm 3 m/s 744 mmHg 55%
    09:00 +3°C° 0 mm 3 m/s 745 mmHg 51%
    10:00 +5°C° 0 mm 2 m/s 745 mmHg 47%
    11:00 +6°C° 0 mm 2 m/s 745 mmHg 45%
    12:00 +7°C° 0 mm 2 m/s 745 mmHg 43%
    13:00 +8°C° 0 mm 2 m/s 744 mmHg 40%
    14:00 +8°C° 0 mm 1 m/s 744 mmHg 44%
    15:00 +8°C° 0 mm 1 m/s 744 mmHg 49%
    16:00 +7°C° 0 mm 1 m/s 744 mmHg 53%
    17:00 +6°C° 0 mm 1 m/s 744 mmHg 55%
    18:00 +4°C° 0 mm 2 m/s 744 mmHg 58%
    19:00 +3°C° 0 mm 2 m/s 745 mmHg 60%
    20:00 +2°C° 0 mm 2 m/s 745 mmHg 61%
    21:00 +2°C° 0 mm 2 m/s 745 mmHg 61%
    22:00 +2°C° 0 mm 2 m/s 745 mmHg 62%
    23:00 +2°C° 0 mm 2 m/s 744 mmHg 61%

    25 Ianuarie, Joi

    Timp Temperatura Precipitaţii Vânt Presiune Umiditate
    00:00 +2°C° 0 mm 2 m/s 744 mmHg 60%
    01:00 +2°C° 0 mm 2 m/s 744 mmHg 59%
    02:00 +3°C° 0 mm 1 m/s 744 mmHg 58%
    03:00 +3°C° 0 mm 1 m/s 743 mmHg 56%
    04:00 +3°C° 0 mm 1 m/s 743 mmHg 54%
    05:00 +3°C° 0 mm 1 m/s 743 mmHg 53%
    06:00 +3°C° 0 mm 1 m/s 743 mmHg 51%
    07:00 +3°C° 0 mm 1 m/s 743 mmHg 49%
    08:00 +5°C° 0 mm 1 m/s 742 mmHg 45%
    09:00 +6°C° 0 mm 1 m/s 742 mmHg 40%
    10:00 +7°C° 0 mm 0 m/s 742 mmHg 36%
    11:00 +9°C° 0 mm 1 m/s 742 mmHg 36%
    12:00 +9°C° 0 mm 1 m/s 741 mmHg 36%
    13:00 +10°C° 0 mm 1 m/s 741 mmHg 36%
    14:00 +9°C° 0 mm 1 m/s 740 mmHg 42%
    15:00 +8°C° 0 mm 1 m/s 740 mmHg 47%
    16:00 +8°C° 0 mm 1 m/s 740 mmHg 53%
    17:00 +6°C° 0 mm 1 m/s 740 mmHg 56%
    18:00 +5°C° 0 mm 1 m/s 740 mmHg 58%
    19:00 +3°C° 0 mm 0 m/s 740 mmHg 61%
    20:00 +4°C° 0 mm 1 m/s 739 mmHg 60%
    21:00 +4°C° 0 mm 1 m/s 739 mmHg 59%
    22:00 +4°C° 0 mm 1 m/s 739 mmHg 58%
    23:00 +4°C° 0 mm 1 m/s 739 mmHg 57%

    26 Ianuarie, Vineri

    Timp Temperatura Precipitaţii Vânt Presiune Umiditate
    00:00 +4°C° 0 mm 1 m/s 739 mmHg 56%
    01:00 +4°C° 0 mm 1 m/s 739 mmHg 55%
    02:00 +4°C° 0 mm 1 m/s 739 mmHg 55%
    03:00 +4°C° 0 mm 1 m/s 739 mmHg 55%
    04:00 +4°C° 0 mm 1 m/s 739 mmHg 54%
    05:00 +4°C° 0 mm 1 m/s 739 mmHg 55%
    06:00 +4°C° 0 mm 1 m/s 739 mmHg 55%
    07:00 +3°C° 0 mm 2 m/s 739 mmHg 56%
    08:00 +4°C° 0 mm 2 m/s 740 mmHg 52%
    09:00 +6°C° 0 mm 2 m/s 740 mmHg 48%
    10:00 +8°C° 0 mm 1 m/s 740 mmHg 44%
    11:00 +9°C° 0 mm 1 m/s 740 mmHg 44%
    12:00 +10°C° 0 mm 1 m/s 740 mmHg 43%
    13:00 +10°C° 0 mm 1 m/s 740 mmHg 43%
    14:00 +10°C° 0 mm 1 m/s 740 mmHg 48%
    15:00 +9°C° 0 mm 1 m/s 740 mmHg 52%
    16:00 +9°C° 0 mm 1 m/s 740 mmHg 57%
    17:00 +8°C° 0 mm 1 m/s 740 mmHg 60%
    18:00 +7°C° 0 mm 1 m/s 740 mmHg 63%
    19:00 +5°C° 0 mm 1 m/s 741 mmHg 66%
    20:00 +5°C° 0 mm 1 m/s 741 mmHg 66%
    21:00 +5°C° 0 mm 1 m/s 741 mmHg 66%
    22:00 +4°C° 0 mm 2 m/s 742 mmHg 67%
    23:00 +4°C° 0 mm 2 m/s 742 mmHg 67%
    Arată mai mult